Tracking 27402 objects as of 3-Jun-2023
HD Live streaming from Space Station
objects crossing your sky now

BEIDOU 1B

Track BEIDOU 1B now!
BEIDOU 1B is classified as:


NORAD ID: 26643
Int'l Code: 2000-082A
Perigee: 35,717.5 km
Apogee: 36,447.3 km
Inclination: 11.0 °
Period: 1,450.9 minutes
Semi major axis: 42453 km
RCS: 0.1238 m2 (medium)
Launch date: December 20, 2000
Source: People's Republic of China (PRC)
Launch site: Xichang Space Center, China (XSC)

Space-bsaed navigation and positioning system to improve accuracy of weapons and situational awareness of military forces.
Your satellite tracking list
Your tracking list is empty




NASA's NSSDC Master Catalog

Two Line Element Set (TLE):
1 26643U 00082A   23153.56682877 -.00000155  00000-0  00000-0 0  9996
2 26643  10.9927  34.8747 0085956  59.7419 106.2402  0.99250864 41050
Source of the keplerian elements: AFSPC